Wind_Speed
9 9 8 8 8 8 8 8 8 9 9 9 10 10 10 11 11 11 12 13 14 14 14 15 16 16 17 16 17 17 17 17 17 19 20 20 21 21 21 22 22 22 23
9 9 9 9 9 9 9 10 10 10 10 10 10 11 11 11 11 12 13 14 14 14 14 14 15 15 15 16 16 17 17 18 18 18 19 20 21 21 21 23 23 23 24
10 9 9 10 10 10 11 11 11 11 11 11 11 12 12 12 12 13 13 14 14 14 15 15 16 16 16 16 16 17 18 18 18 18 20 20 21 21 21 22 23 24 24
11 10 10 11 11 11 12 13 13 12 12 12 12 13 13 13 13 13 13 14 14 15 15 16 16 16 17 17 17 17 18 18 19 20 20 20 21 22 22 23 24 24 25
13 13 13 12 13 13 13 13 13 13 13 13 14 14 14 14 14 14 14 15 15 16 16 17 17 17 18 18 19 19 19 20 20 20 21 21 22 22 23 24 25 25 26
15 14 14 14 15 15 15 15 15 15 15 15 15 16 16 16 15 15 16 16 17 16 17 18 18 19 19 20 20 20 21 21 21 21 21 22 23 24 25 25 25 26 27
16 16 16 16 17 16 16 17 16 16 16 17 17 17 18 17 17 16 17 18 18 18 18 18 19 19 20 21 21 22 22 22 22 22 22 23 24 25 26 26 27 27 28
18 18 18 18 19 18 18 18 19 18 18 18 18 18 19 19 18 18 18 19 18 19 19 20 20 20 21 21 21 22 22 22 23 23 24 25 25 26 27 28 28 29 29
19 19 20 20 20 20 20 20 19 19 20 20 20 21 21 20 20 20 20 20 20 20 20 21 21 21 22 23 23 23 23 24 25 25 26 26 27 27 28 29 29 29 30
22 22 22 22 22 22 22 22 22 22 22 22 22 22 23 23 22 22 22 22 22 22 22 22 23 24 24 24 24 25 25 26 27 27 28 28 28 29 29 29 30 30 30
25 25 25 24 24 24 24 24 24 25 24 24 24 24 24 25 25 24 24 23 24 24 24 24 25 25 26 26 27 27 28 28 29 29 30 30 31 30 30 30 31 31 31
28 29 28 27 27 27 26 26 26 27 27 27 27 27 27 27 26 26 25 25 25 26 26 27 27 27 28 28 29 30 30 30 30 31 31 31 31 31 31 31 31 32 32
31 30 30 30 29 29 29 29 29 29 30 30 30 29 29 29 29 29 28 27 27 27 28 29 29 29 30 31 31 31 31 31 31 31 32 32 31 31 32 32 32 33 33
33 32 32 32 32 32 32 31 32 32 31 31 31 31 31 31 30 30 30 30 30 29 29 30 30 31 31 32 31 31 31 31 31 32 32 32 32 32 32 32 33 34 33
34 35 35 35 35 34 34 34 34 34 34 32 32 32 32 32 32 32 31 32 32 32 32 32 32 32 32 32 32 32 32 32 32 32 32 32 33 33 33 34 34 35 34
37 37 37 37 37 37 36 36 36 36 34 35 35 34 33 33 33 33 33 33 34 34 34 34 34 33 33 33 33 33 33 33 33 33 33 33 34 34 34 34 34 34 34
39 39 38 38 38 38 38 37 37 36 36 36 35 34 33 33 33 33 33 34 34 34 34 34 34 34 34 34 34 34 34 34 34 34 34 34 34 34 34 34 34 35 35
40 40 40 40 40 39 39 39 38 37 36 36 36 35 34 34 34 33 34 34 34 34 34 35 35 34 34 35 35 35 35 35 35 35 35 35 34 34 34 35 35 34 34
41 41 41 40 40 40 40 39 38 38 38 38 37 37 36 36 35 35 35 35 35 35 36 36 35 35 35 36 36 36 36 36 36 36 36 35 35 35 35 35 35 34 34
40 41 41 41 41 40 40 39 39 40 39 39 38 38 37 37 36 36 36 36 36 36 36 37 36 36 36 36 36 37 36 36 36 36 35 35 35 35 35 35 35 34 34
42 41 41 40 40 40 41 41 41 41 40 39 39 38 38 38 37 37 37 37 37 37 37 37 37 37 37 37 37 36 36 36 36 36 35 35 35 36 36 36 36 35 35
40 39 39 39 40 40 40 40 40 39 39 39 38 39 39 38 38 38 38 38 38 38 37 37 37 37 37 37 37 37 37 37 37 37 36 36 36 37 37 36 36 35 36
38 38 38 38 39 39 39 38 38 37 37 37 38 38 39 38 38 38 38 38 38 38 37 37 36 37 37 38 38 38 38 38 38 38 38 38 37 37 37 36 36 36 36
34 35 35 36 36 37 37 37 36 36 37 37 38 37 37 36 37 37 37 37 37 37 37 37 37 38 38 38 38 38 38 38 38 38 38 37 37 37 37 37 36 36 36
33 33 33 33 34 34 35 35 34 34 35 35 36 35 35 35 35 36 36 37 37 37 37 37 37 37 37 37 37 37 37 37 37 37 37 37 37 37 37 37 36 36 36
31 31 32 32 32 33 33 33 33 33 34 34 35 34 34 34 34 34 35 36 36 35 35 35 35 36 36 36 36 37 37 37 37 37 37 37 37 37 36 36 36 36 35
Wind_Direction
338 335 333 330 328 324 322 321 323 325 319 316 315 311 307 302 297 293 294 291 292 289 287 286 288 289 286 284 284 285 283 281 281 281 282 284 286 287 287 286 286 286 287
334 332 331 330 328 323 321 318 316 317 315 312 311 310 310 308 301 295 296 296 295 292 291 292 294 294 294 289 287 285 285 286 286 285 284 285 285 284 285 284 286 289 289
331 329 327 325 324 323 321 321 320 315 314 315 313 312 310 307 303 298 296 296 296 294 293 294 294 294 293 294 292 292 291 290 288 289 288 286 285 285 286 285 286 289 290
326 324 323 322 320 320 322 319 318 316 313 313 313 314 313 308 303 301 298 295 294 295 296 296 295 294 293 293 292 294 294 291 289 289 290 290 288 288 288 289 288 290 290
319 317 317 317 316 316 317 316 314 312 311 311 312 312 313 309 304 300 301 298 297 296 296 297 297 295 295 293 291 291 292 293 292 290 290 290 291 291 290 291 292 292 293
311 310 310 311 311 310 311 311 310 309 309 309 309 309 310 307 303 299 298 299 299 298 297 298 297 295 294 293 292 291 292 293 294 292 291 290 291 292 291 292 293 294 294
307 305 302 304 304 304 306 307 307 308 307 307 307 307 307 305 301 298 297 298 300 298 297 297 297 296 294 293 293 292 293 294 294 293 291 291 291 293 293 293 294 295 295
303 302 297 296 299 298 302 304 306 306 305 303 303 304 305 306 302 298 298 297 297 296 296 295 295 296 295 294 294 293 293 293 293 293 291 292 293 293 293 293 293 293 294
300 301 296 294 296 296 300 303 302 302 304 301 299 301 302 302 302 300 298 297 296 295 296 296 295 295 295 295 294 293 293 293 293 293 293 293 293 293 293 293 293 292 293
294 296 295 290 290 293 296 298 297 298 299 299 299 299 300 300 300 299 297 297 297 296 296 296 295 293 294 294 293 293 294 294 294 293 293 292 292 292 292 292 293 292 293
289 291 291 289 289 289 291 293 294 296 297 297 297 298 298 298 297 296 296 296 295 295 295 295 294 293 293 293 293 293 293 293 293 292 292 292 291 291 291 291 292 292 294
284 287 288 288 288 289 290 292 294 296 296 296 296 295 295 294 294 293 292 293 293 293 294 295 295 294 293 294 294 294 293 292 291 291 292 292 291 291 292 293 293 293 294
283 286 287 289 288 287 288 290 292 295 296 295 294 293 293 292 293 292 291 290 290 291 292 293 294 294 294 294 294 294 293 292 291 292 292 293 292 292 292 293 293 294 295
280 284 286 286 285 284 286 289 290 291 294 294 292 291 291 291 291 290 290 290 290 290 292 293 293 294 294 294 295 294 293 292 293 293 293 293 292 293 293 293 293 294 295
278 280 281 282 282 282 284 285 288 289 290 290 290 291 291 290 290 290 289 289 290 290 291 292 293 293 294 294 294 294 294 294 293 293 293 293 293 293 293 294 294 294 294
275 278 280 281 280 280 282 284 285 286 287 289 290 289 290 290 290 289 288 288 288 290 291 291 292 293 293 294 294 294 293 293 292 293 292 293 293 293 293 293 294 294 294
274 276 278 279 279 281 282 284 285 285 286 287 288 287 287 289 289 288 289 289 289 290 291 292 293 293 292 292 293 293 292 292 291 291 292 292 293 293 293 293 293 294 294
273 274 276 278 279 279 281 282 283 284 284 284 285 285 286 287 288 288 288 289 290 291 291 291 292 292 292 292 292 292 291 291 290 290 291 292 292 292 292 294 294 293 293
272 273 275 276 277 278 279 280 281 283 283 282 283 285 286 286 287 288 290 289 289 290 290 290 290 290 290 290 291 291 290 290 290 290 291 291 291 291 291 292 293 293 293
272 272 274 275 276 277 277 279 280 281 281 281 281 283 283 284 285 287 288 289 289 289 288 288 288 289 289 290 291 291 290 289 290 291 291 291 291 291 291 291 291 291 291
273 273 274 274 275 277 278 278 278 278 278 279 279 280 281 281 283 285 286 288 288 288 288 288 288 288 289 289 290 289 289 289 289 290 290 291 290 290 290 290 290 290 290
272 272 273 274 275 276 277 276 275 276 276 278 279 278 278 279 281 284 286 286 287 287 287 288 288 288 289 289 289 288 288 288 289 290 290 290 289 289 289 289 289 289 289
271 272 273 273 274 274 273 273 274 275 276 276 277 277 278 279 280 282 284 286 287 287 287 287 287 287 287 288 288 287 288 288 288 289 289 289 289 289 289 289 289 289 289
273 273 272 272 273 273 272 273 274 275 275 276 278 279 280 280 281 283 284 285 286 286 286 287 287 287 287 288 287 287 287 288 289 288 289 289 289 288 288 288 288 289 289
274 274 274 273 272 273 274 274 275 276 277 279 281 281 281 281 282 282 283 284 284 285 286 287 288 288 289 288 288 289 289 289 289 289 289 289 289 288 288 288 288 288 288
272 271 272 273 274 275 275 275 276 277 279 281 282 282 282 282 283 283 284 285 284 285 287 287 288 289 290 290 289 289 289 289 290 290 289 289 289 289 288 288 288 287 287
Height
5900 5898 5897 5895 5894 5892 5891 5890 5888 5887 5886 5885 5883 5882 5881 5880 5879 5878 5877 5876 5876 5875 5874 5873 5872 5870 5869 5868 5867 5865 5864 5863 5862 5861 5859 5858 5857 5856 5854 5853 5852 5850 5849
5899 5897 5896 5894 5893 5891 5890 5888 5887 5886 5884 5883 5882 5880 5879 5877 5876 5875 5874 5873 5872 5871 5870 5869 5868 5867 5865 5864 5863 5861 5860 5858 5857 5856 5854 5853 5852 5850 5849 5847 5846 5844 5843
5898 5896 5894 5893 5892 5890 5888 5887 5885 5884 5882 5881 5879 5878 5876 5875 5873 5872 5871 5870 5869 5868 5867 5866 5864 5863 5862 5860 5859 5857 5856 5854 5852 5851 5850 5848 5847 5845 5843 5842 5840 5838 5836
5896 5895 5893 5891 5890 5888 5887 5885 5884 5882 5880 5879 5877 5875 5873 5871 5870 5869 5868 5867 5866 5864 5863 5862 5860 5859 5858 5856 5855 5853 5851 5849 5848 5846 5845 5843 5841 5839 5838 5836 5834 5832 5830
5894 5893 5891 5889 5888 5886 5885 5883 5881 5880 5878 5876 5874 5873 5870 5869 5867 5866 5864 5863 5862 5861 5859 5858 5856 5855 5853 5852 5850 5849 5847 5845 5843 5841 5840 5838 5836 5834 5832 5830 5828 5826 5824
5891 5890 5888 5887 5885 5884 5882 5880 5878 5877 5875 5873 5871 5869 5867 5865 5864 5862 5861 5860 5858 5856 5855 5853 5852 5850 5848 5847 5845 5844 5842 5840 5838 5836 5834 5832 5831 5829 5826 5824 5822 5820 5818
5888 5887 5885 5884 5882 5880 5879 5877 5875 5873 5872 5870 5868 5866 5864 5862 5860 5858 5857 5855 5854 5852 5850 5848 5847 5845 5843 5842 5840 5838 5836 5834 5833 5831 5829 5827 5824 5822 5820 5818 5815 5813 5811
5884 5882 5881 5880 5878 5877 5875 5873 5871 5870 5868 5866 5864 5862 5860 5858 5856 5854 5852 5851 5849 5847 5845 5843 5841 5840 5838 5836 5834 5832 5830 5828 5826 5824 5823 5820 5818 5815 5813 5811 5808 5806 5803
5880 5879 5877 5875 5874 5872 5871 5869 5867 5865 5864 5862 5860 5858 5856 5854 5852 5850 5848 5846 5844 5842 5840 5838 5836 5834 5832 5830 5828 5826 5824 5822 5819 5817 5815 5813 5811 5808 5806 5804 5801 5798 5796
5876 5874 5873 5871 5869 5867 5866 5864 5862 5861 5859 5857 5855 5854 5852 5849 5847 5845 5843 5841 5839 5837 5834 5832 5830 5828 5826 5824 5822 5820 5817 5815 5813 5810 5808 5806 5803 5801 5798 5796 5793 5791 5788
5870 5869 5867 5865 5864 5862 5861 5859 5857 5856 5853 5852 5850 5848 5846 5844 5842 5840 5837 5835 5833 5830 5828 5826 5824 5821 5819 5817 5815 5813 5810 5808 5805 5803 5800 5798 5795 5793 5790 5787 5785 5782 5779
5863 5862 5860 5859 5858 5856 5855 5853 5851 5849 5848 5845 5843 5842 5840 5837 5835 5833 5831 5829 5826 5824 5821 5819 5817 5814 5812 5809 5807 5805 5802 5800 5797 5794 5792 5789 5787 5784 5781 5778 5776 5773 5770
5855 5854 5853 5851 5850 5850 5848 5847 5845 5843 5840 5838 5836 5834 5832 5830 5828 5826 5823 5821 5819 5816 5814 5811 5809 5806 5804 5801 5799 5796 5793 5791 5788 5786 5783 5781 5778 5775 5773 5770 5767 5764 5761
5847 5846 5845 5844 5843 5842 5840 5839 5837 5835 5833 5830 5828 5826 5824 5822 5820 5817 5815 5813 5811 5808 5806 5803 5801 5798 5795 5793 5790 5787 5785 5782 5779 5777 5774 5772 5769 5766 5763 5760 5758 5755 5752
5838 5837 5836 5835 5834 5833 5831 5830 5828 5826 5824 5822 5820 5817 5815 5813 5811 5809 5806 5804 5802 5800 5797 5794 5792 5789 5786 5784 5781 5778 5776 5773 5770 5768 5765 5762 5759 5757 5754 5751 5748 5745 5742
5828 5828 5827 5825 5824 5823 5822 5820 5818 5817 5814 5813 5811 5809 5806 5804 5802 5800 5797 5795 5792 5790 5788 5785 5782 5780 5777 5774 5772 5769 5766 5763 5761 5758 5755 5752 5750 5747 5744 5741 5738 5735 5732
5818 5817 5816 5815 5814 5812 5811 5810 5808 5807 5805 5803 5801 5799 5797 5794 5792 5790 5787 5785 5783 5780 5778 5775 5773 5770 5768 5765 5762 5759 5757 5754 5751 5748 5745 5743 5740 5737 5734 5731 5728 5725 5722
5806 5806 5805 5804 5802 5801 5800 5799 5798 5796 5795 5793 5791 5789 5787 5785 5782 5780 5778 5775 5773 5771 5768 5765 5763 5760 5758 5755 5752 5749 5746 5744 5741 5738 5735 5732 5730 5727 5724 5721 5718 5715 5712
5794 5794 5793 5792 5791 5790 5789 5787 5786 5785 5784 5782 5780 5778 5776 5774 5772 5770 5767 5765 5763 5760 5758 5755 5753 5750 5747 5744 5742 5739 5736 5733 5730 5728 5725 5722 5719 5716 5713 5710 5708 5705 5702
5782 5782 5781 5780 5779 5778 5777 5776 5775 5773 5772 5770 5769 5767 5765 5763 5761 5759 5757 5754 5752 5749 5747 5744 5742 5739 5737 5734 5731 5728 5725 5723 5720 5717 5714 5711 5709 5706 5703 5700 5697 5694 5691
5769 5769 5769 5768 5767 5766 5765 5764 5762 5761 5759 5758 5757 5755 5754 5752 5750 5748 5746 5743 5741 5738 5736 5733 5731 5728 5726 5723 5720 5717 5715 5712 5709 5706 5703 5701 5698 5695 5692 5689 5686 5683 5680
5757 5757 5756 5755 5755 5754 5753 5751 5750 5749 5747 5746 5745 5743 5742 5740 5738 5736 5734 5732 5729 5727 5725 5722 5720 5717 5714 5712 5709 5706 5704 5701 5698 5695 5692 5689 5687 5684 5681 5678 5675 5672 5669
5745 5745 5744 5743 5742 5741 5740 5739 5738 5737 5736 5734 5733 5731 5729 5728 5726 5724 5722 5720 5718 5715 5713 5710 5708 5705 5703 5700 5697 5695 5692 5689 5686 5683 5681 5678 5675 5672 5669 5666 5664 5661 5658
5734 5733 5732 5731 5731 5730 5729 5727 5726 5725 5724 5723 5721 5719 5717 5716 5714 5712 5710 5708 5706 5704 5701 5698 5696 5693 5691 5688 5685 5683 5680 5677 5674 5671 5668 5666 5663 5660 5658 5655 5652 5650 5647
5722 5722 5721 5720 5719 5718 5717 5716 5715 5714 5713 5712 5710 5708 5706 5704 5703 5701 5699 5697 5694 5692 5689 5687 5684 5681 5679 5676 5673 5671 5668 5665 5662 5659 5656 5654 5651 5649 5646 5643 5641 5638 5636
5711 5711 5710 5709 5708 5708 5706 5705 5704 5704 5702 5701 5699 5697 5695 5693 5692 5690 5688 5685 5683 5680 5678 5675 5672 5670 5667 5664 5661 5659 5656 5653 5650 5647 5644 5642 5639 5637 5634 5632 5629 5627 5624